| time (UTC) | temp F | wind direction | speed MPH | gust MPH | rain 1hr in | rain 24hr in | rain mn in | humidity % | barometer mb |
| 20260508174740 | 67 | 220 | 3.0 | 11.0 | 0.00 | 0.00 | 0.00 | 34 | 1015.4 |
| 20260508173726 | 66 | 171 | 5.0 | 10.0 | 0.00 | 0.00 | 0.00 | 31 | 1015.4 |
| 20260508172732 | 66 | 206 | 4.0 | 10.0 | 0.00 | 0.00 | 0.00 | 33 | 1015.4 |
| 20260508171738 | 66 | 212 | 4.0 | 8.0 | 0.00 | 0.00 | 0.00 | 33 | 1015.4 |
| 20260508170729 | 65 | 155 | 6.0 | 9.0 | 0.00 | 0.00 | 0.00 | 33 | 1015.5 |
| 20260508165757 | 64 | 173 | 6.0 | 10.0 | 0.00 | 0.00 | 0.00 | 37 | 1015.5 |
| 20260508164741 | 64 | 205 | 6.0 | 11.0 | 0.00 | 0.00 | 0.00 | 39 | 1015.4 |
| 20260508163745 | 63 | 185 | 7.0 | 11.0 | 0.00 | 0.00 | 0.00 | 41 | 1015.4 |
| 20260508162731 | 61 | 185 | 5.0 | 10.0 | 0.00 | 0.00 | 0.00 | 49 | 1015.4 |
| 20260508161738 | 60 | 192 | 5.0 | 10.0 | 0.00 | 0.00 | 0.00 | 56 | 1015.4 |
| 20260508160741 | 59 | 222 | 5.0 | 7.0 | 0.00 | 0.00 | 0.00 | 57 | 1015.4 |
| 20260508155731 | 58 | 205 | 3.0 | 7.0 | 0.00 | 0.00 | 0.00 | 56 | 1015.5 |
| 20260508154735 | 57 | 173 | 5.0 | 7.0 | 0.00 | 0.00 | 0.00 | 56 | 1015.5 |
| 20260508153744 | 56 | 200 | 4.0 | 6.0 | 0.00 | 0.00 | 0.00 | 56 | 1015.6 |
| 20260508152729 | 55 | 196 | 3.0 | 4.0 | 0.00 | 0.00 | 0.00 | 58 | 1015.6 |
| 20260508151735 | 55 | 244 | 2.0 | 5.0 | 0.00 | 0.00 | 0.00 | 66 | 1015.6 |
| 20260508150741 | 54 | 236 | 3.0 | 5.0 | 0.00 | 0.00 | 0.00 | 67 | 1015.5 |
| 20260508145733 | 52 | 252 | 1.0 | 2.0 | 0.00 | 0.00 | 0.00 | 69 | 1015.4 |
| 20260508144738 | 51 | 252 | 0.0 | 2.0 | 0.00 | 0.00 | 0.00 | 71 | 1015.3 |
| 20260508143741 | 51 | 252 | 1.0 | 3.0 | 0.00 | 0.00 | 0.00 | 72 | 1015.4 |
| 20260508142805 | 50 | 300 | 1.0 | 2.0 | 0.00 | 0.00 | 0.00 | 72 | 1015.3 |
| 20260508141735 | 49 | 319 | 0.0 | 3.0 | 0.00 | 0.00 | 0.00 | 75 | 1015.3 |
| 20260508140759 | 47 | 319 | 1.0 | 2.0 | 0.00 | 0.00 | 0.00 | 76 | 1015.3 |
| 20260508135801 | 46 | 316 | 1.0 | 2.0 | 0.00 | 0.00 | 0.00 | 76 | 1015.2 |
| 20260508134745 | 45 | 322 | 0.0 | 2.0 | 0.00 | 0.00 | 0.00 | 78 | 1015.1 |
| 20260508133730 | 44 | 322 | 1.0 | 4.0 | 0.00 | 0.00 | 0.00 | 77 | 1014.9 |
| 20260508132738 | 44 | 281 | 0.0 | 2.0 | 0.00 | 0.00 | 0.00 | 77 | 1014.8 |
| 20260508131743 | 44 | 281 | 0.0 | 4.0 | 0.00 | 0.00 | 0.00 | 78 | 1014.7 |
| 20260508130727 | 43 | 22 | 0.0 | 2.0 | 0.00 | 0.00 | 0.00 | 77 | 1014.6 |
| 20260508125736 | 43 | 22 | 0.0 | 3.0 | 0.00 | 0.00 | 0.00 | 77 | 1014.4 |
| 20260508124740 | 43 | 21 | 2.0 | 3.0 | 0.00 | 0.00 | 0.00 | 76 | 1014.2 |
| 20260508123730 | 43 | 20 | 1.0 | 3.0 | 0.00 | 0.00 | 0.00 | 75 | 1014.1 |
| 20260508122736 | 43 | 21 | 2.0 | 3.0 | 0.00 | 0.00 | 0.00 | 75 | 1014.1 |
| 20260508121743 | 44 | 20 | 2.0 | 3.0 | 0.00 | 0.00 | 0.00 | 74 | 1014.0 |
| 20260508120737 | 43 | 19 | 1.0 | 3.0 | 0.00 | 0.00 | 0.00 | 74 | 1013.9 |
| 20260508115729 | 43 | 15 | 1.0 | 5.0 | 0.00 | 0.00 | 0.00 | 74 | 1013.8 |
| 20260508114734 | 43 | 51 | 1.0 | 3.0 | 0.00 | 0.00 | 0.00 | 74 | 1013.7 |
| 20260508113739 | 43 | 52 | 1.0 | 3.0 | 0.00 | 0.00 | 0.00 | 73 | 1013.6 |
| 20260508112742 | 44 | 53 | 1.0 | 3.0 | 0.00 | 0.00 | 0.00 | 73 | 1013.4 |
| 20260508111732 | 44 | 53 | 0.0 | 2.0 | 0.00 | 0.00 | 0.00 | 74 | 1013.4 |
| 20260508110737 | 44 | 53 | 0.0 | 2.0 | 0.00 | 0.00 | 0.00 | 73 | 1013.3 |
| 20260508105725 | 45 | 53 | 2.0 | 3.0 | 0.00 | 0.00 | 0.00 | 72 | 1013.2 |
| 20260508104732 | 44 | 53 | 1.0 | 2.0 | 0.00 | 0.00 | 0.00 | 73 | 1013.1 |
| 20260508103743 | 45 | 53 | 0.0 | 0.0 | 0.00 | 0.00 | 0.00 | 72 | 1013.0 |
| 20260508102748 | 45 | 53 | 1.0 | 3.0 | 0.00 | 0.00 | 0.00 | 70 | 1013.2 |
| 20260508101733 | 45 | 53 | 0.0 | 1.0 | 0.00 | 0.00 | 0.00 | 69 | 1013.0 |
| 20260508100737 | 45 | 53 | 1.0 | 4.0 | 0.00 | 0.00 | 0.00 | 71 | 1012.9 |
| 20260508095745 | 46 | 340 | 0.0 | 3.0 | 0.00 | 0.00 | 0.00 | 71 | 1013.0 |
| 20260508094752 | 46 | 338 | 0.0 | 3.0 | 0.00 | 0.00 | 0.00 | 70 | 1012.9 |
| 20260508093756 | 46 | 321 | 0.0 | 4.0 | 0.00 | 0.00 | 0.00 | 70 | 1012.9 |
| 20260508092741 | 46 | 19 | 1.0 | 3.0 | 0.00 | 0.00 | 0.00 | 70 | 1012.8 |
| 20260508091726 | 46 | 15 | 1.0 | 3.0 | 0.00 | 0.00 | 0.00 | 70 | 1012.9 |
| 20260508090736 | 46 | 15 | 0.0 | 3.0 | 0.00 | 0.00 | 0.00 | 69 | 1012.8 |
| 20260508085747 | 46 | 15 | 0.0 | 3.0 | 0.00 | 0.00 | 0.00 | 68 | 1012.5 |
| 20260508084730 | 47 | 15 | 2.0 | 3.0 | 0.00 | 0.00 | 0.00 | 66 | 1012.7 |
| 20260508083756 | 47 | 15 | 0.0 | 2.0 | 0.00 | 0.00 | 0.00 | 66 | 1012.9 |
| 20260508082739 | 48 | 14 | 1.0 | 5.0 | 0.00 | 0.00 | 0.00 | 67 | 1012.7 |
| 20260508081724 | 48 | 13 | 3.0 | 5.0 | 0.00 | 0.00 | 0.00 | 65 | 1012.8 |
| 20260508080728 | 49 | 108 | 1.0 | 4.0 | 0.00 | 0.00 | 0.00 | 65 | 1012.8 |
| 20260508075757 | 49 | 44 | 1.0 | 2.0 | 0.00 | 0.00 | 0.00 | 66 | 1012.7 |
| 20260508074742 | 50 | 44 | 1.0 | 4.0 | 0.00 | 0.00 | 0.00 | 63 | 1012.8 |
| 20260508073725 | 50 | 266 | 1.0 | 3.0 | 0.00 | 0.00 | 0.00 | 62 | 1012.9 |
| 20260508072733 | 50 | 265 | 1.0 | 3.0 | 0.00 | 0.00 | 0.00 | 62 | 1012.8 |
| 20260508071738 | 51 | 265 | 1.0 | 4.0 | 0.00 | 0.00 | 0.00 | 62 | 1012.9 |
| 20260508070742 | 52 | 279 | 3.0 | 6.0 | 0.00 | 0.00 | 0.00 | 59 | 1013.0 |
| 20260508065727 | 51 | 150 | 2.0 | 3.0 | 0.00 | 0.00 | 0.00 | 60 | 1013.0 |
| 20260508064738 | 50 | 151 | 2.0 | 6.0 | 0.00 | 0.00 | 0.00 | 63 | 1013.0 |
| 20260508063743 | 49 | 165 | 0.0 | 3.0 | 0.00 | 0.00 | 0.00 | 64 | 1013.1 |
| 20260508062727 | 49 | 165 | 5.0 | 6.0 | 0.00 | 0.00 | 0.00 | 62 | 1013.0 |
| 20260508061733 | 52 | 178 | 4.0 | 6.0 | 0.00 | 0.00 | 0.00 | 57 | 1013.0 |
| 20260508060742 | 56 | 275 | 5.0 | 9.0 | 0.00 | 0.00 | 0.00 | 46 | 1013.0 |
| 20260508055735 | 57 | 117 | 4.0 | 8.0 | 0.00 | 0.00 | 0.00 | 41 | 1012.8 |
| 20260508054739 | 58 | 99 | 1.0 | 3.0 | 0.00 | 0.00 | 0.00 | 42 | 1012.8 |
| 20260508053726 | 60 | 99 | 1.0 | 9.0 | 0.00 | 0.00 | 0.00 | 39 | 1012.8 |
| 20260508052731 | 60 | 100 | 6.0 | 8.0 | 0.00 | 0.00 | 0.00 | 37 | 1012.8 |
| 20260508051739 | 59 | 66 | 2.0 | 5.0 | 0.00 | 0.00 | 0.00 | 38 | 1012.9 |
| 20260508050804 | 60 | 44 | 3.0 | 9.0 | 0.00 | 0.00 | 0.00 | 41 | 1013.0 |
| 20260508045730 | 61 | 95 | 1.0 | 7.0 | 0.00 | 0.00 | 0.00 | 38 | 1013.0 |
| 20260508044733 | 61 | 90 | 5.0 | 9.0 | 0.00 | 0.00 | 0.00 | 36 | 1012.9 |
| 20260508043736 | 61 | 101 | 7.0 | 10.0 | 0.00 | 0.00 | 0.00 | 36 | 1013.0 |
| 20260508042744 | 60 | 86 | 4.0 | 6.0 | 0.00 | 0.00 | 0.00 | 39 | 1012.9 |
| 20260508041729 | 61 | 76 | 2.0 | 5.0 | 0.00 | 0.00 | 0.00 | 38 | 1012.9 |
| 20260508040753 | 60 | 75 | 4.0 | 9.0 | 0.00 | 0.00 | 0.00 | 38 | 1012.8 |
| 20260508035738 | 60 | 76 | 4.0 | 6.0 | 0.00 | 0.00 | 0.00 | 40 | 1012.7 |
| 20260508034801 | 61 | 67 | 1.0 | 5.0 | 0.00 | 0.00 | 0.00 | 40 | 1012.7 |
| 20260508033727 | 61 | 95 | 2.0 | 8.0 | 0.00 | 0.00 | 0.00 | 40 | 1012.5 |
| 20260508032733 | 61 | 94 | 6.0 | 8.0 | 0.00 | 0.00 | 0.00 | 39 | 1012.3 |
| 20260508031738 | 60 | 74 | 3.0 | 7.0 | 0.00 | 0.00 | 0.00 | 40 | 1012.3 |
| 20260508030744 | 60 | 94 | 4.0 | 6.0 | 0.00 | 0.00 | 0.00 | 41 | 1012.1 |
| 20260508025737 | 60 | 72 | 2.0 | 4.0 | 0.00 | 0.00 | 0.00 | 45 | 1012.1 |
| 20260508024742 | 62 | 34 | 0.0 | 2.0 | 0.00 | 0.00 | 0.00 | 49 | 1012.0 |
| 20260508023726 | 64 | 34 | 1.0 | 4.0 | 0.00 | 0.00 | 0.00 | 42 | 1011.9 |
| 20260508022750 | 66 | 32 | 2.0 | 4.0 | 0.00 | 0.00 | 0.00 | 41 | 1011.9 |
| 20260508021737 | 68 | 284 | 2.0 | 3.0 | 0.00 | 0.00 | 0.00 | 38 | 1011.9 |
| 20260508020740 | 70 | 284 | 0.0 | 3.0 | 0.00 | 0.00 | 0.00 | 30 | 1011.6 |
| 20260508015728 | 70 | 284 | 2.0 | 4.0 | 0.00 | 0.00 | 0.00 | 31 | 1011.6 |
| 20260508014733 | 70 | 282 | 3.0 | 6.0 | 0.00 | 0.00 | 0.00 | 30 | 1011.5 |
| 20260508013739 | 71 | 333 | 3.0 | 9.0 | 0.00 | 0.00 | 0.00 | 29 | 1011.5 |
| 20260508012729 | 72 | 350 | 5.0 | 9.0 | 0.00 | 0.00 | 0.00 | 28 | 1011.4 |
| 20260508011733 | 72 | 15 | 5.0 | 8.0 | 0.00 | 0.00 | 0.00 | 28 | 1011.4 |
| 20260508010741 | 73 | 327 | 6.0 | 10.0 | 0.00 | 0.00 | 0.00 | 28 | 1011.4 |
| 20260508005757 | 72 | 299 | 2.0 | 10.0 | 0.00 | 0.00 | 0.00 | 26 | 1011.4 |
| 20260508004749 | 72 | 234 | 8.0 | 17.0 | 0.00 | 0.00 | 0.00 | 28 | 1011.3 |
| 20260508003736 | 73 | 39 | 2.0 | 5.0 | 0.00 | 0.00 | 0.00 | 25 | 1011.4 |
| 20260508002744 | 73 | 329 | 2.0 | 5.0 | 0.00 | 0.00 | 0.00 | 26 | 1011.5 |
| 20260508001730 | 73 | 25 | 2.0 | 4.0 | 0.00 | 0.00 | 0.00 | 25 | 1011.8 |
| 20260508000735 | 73 | 16 | 1.0 | 6.0 | 0.00 | 0.00 | 0.00 | 27 | 1012.0 |
| 20260507235727 | 73 | 324 | 2.0 | 6.0 | 0.00 | 0.00 | 0.00 | 26 | 1012.0 |
| 20260507234737 | 73 | 307 | 3.0 | 8.0 | 0.00 | 0.00 | 0.00 | 26 | 1012.1 |
| 20260507233744 | 72 | 340 | 4.0 | 6.0 | 0.00 | 0.00 | 0.00 | 28 | 1012.2 |
| 20260507232734 | 72 | 346 | 4.0 | 8.0 | 0.00 | 0.00 | 0.00 | 27 | 1012.2 |
| 20260507231741 | 72 | 284 | 3.0 | 10.0 | 0.00 | 0.00 | 0.00 | 28 | 1012.2 |
| 20260507230744 | 72 | 264 | 4.0 | 8.0 | 0.00 | 0.00 | 0.00 | 32 | 1012.4 |
| 20260507225737 | 71 | 300 | 6.0 | 13.0 | 0.00 | 0.00 | 0.00 | 31 | 1012.4 |
| 20260507224743 | 71 | 269 | 3.0 | 8.0 | 0.00 | 0.00 | 0.00 | 30 | 1012.5 |
| 20260507223733 | 70 | 277 | 7.0 | 11.0 | 0.00 | 0.00 | 0.00 | 30 | 1012.7 |
| 20260507222739 | 70 | 229 | 5.0 | 10.0 | 0.00 | 0.00 | 0.00 | 33 | 1012.8 |
| 20260507221727 | 69 | 237 | 6.0 | 11.0 | 0.00 | 0.00 | 0.00 | 32 | 1013.0 |
| 20260507220736 | 69 | 257 | 7.0 | 14.0 | 0.00 | 0.00 | 0.00 | 32 | 1012.9 |
| 20260507215735 | 69 | 204 | 7.0 | 11.0 | 0.00 | 0.00 | 0.00 | 31 | 1012.7 |
| 20260507214800 | 68 | 236 | 5.0 | 10.0 | 0.00 | 0.00 | 0.00 | 38 | 1013.3 |
| 20260507213726 | 68 | 211 | 6.0 | 9.0 | 0.00 | 0.00 | 0.00 | 37 | 1013.2 |
| 20260507212733 | 68 | 204 | 5.0 | 11.0 | 0.00 | 0.00 | 0.00 | 36 | 1013.2 |
| 20260507211742 | 68 | 176 | 5.0 | 13.0 | 0.00 | 0.00 | 0.00 | 35 | 1013.3 |
| 20260507210729 | 68 | 192 | 8.0 | 16.0 | 0.00 | 0.00 | 0.00 | 36 | 1013.4 |
| 20260507205742 | 68 | 221 | 9.0 | 12.0 | 0.00 | 0.00 | 0.00 | 36 | 1013.5 |
| 20260507204729 | 68 | 166 | 11.0 | 16.0 | 0.00 | 0.00 | 0.00 | 38 | 1013.7 |
| 20260507203739 | 67 | 188 | 9.0 | 12.0 | 0.00 | 0.00 | 0.00 | 39 | 1013.9 |
| 20260507202746 | 67 | 205 | 8.0 | 10.0 | 0.00 | 0.00 | 0.00 | 40 | 1014.0 |
| 20260507201734 | 65 | 182 | 6.0 | 10.0 | 0.00 | 0.00 | 0.00 | 42 | 1014.1 |
| 20260507200724 | 65 | 185 | 4.0 | 7.0 | 0.00 | 0.00 | 0.00 | 43 | 1014.3 |
| 20260507195724 | 65 | 188 | 6.0 | 8.0 | 0.00 | 0.00 | 0.00 | 37 | 1014.5 |
| 20260507194731 | 65 | 217 | 6.0 | 10.0 | 0.00 | 0.00 | 0.00 | 38 | 1014.6 |
| 20260507193740 | 65 | 200 | 5.0 | 11.0 | 0.00 | 0.00 | 0.00 | 36 | 1014.6 |
| 20260507192726 | 65 | 233 | 7.0 | 12.0 | 0.00 | 0.00 | 0.00 | 35 | 1014.8 |
| 20260507191732 | 65 | 207 | 6.0 | 14.0 | 0.00 | 0.00 | 0.00 | 36 | 1014.9 |
| 20260507190742 | 65 | 241 | 8.0 | 15.0 | 0.00 | 0.00 | 0.00 | 36 | 1014.9 |
| 20260507185736 | 66 | 247 | 9.0 | 16.0 | 0.00 | 0.00 | 0.00 | 33 | 1015.0 |
| 20260507184801 | 67 | 254 | 11.0 | 16.0 | 0.00 | 0.00 | 0.00 | 34 | 1014.8 |
| 20260507183729 | 67 | 231 | 8.0 | 14.0 | 0.00 | 0.00 | 0.00 | 35 | 1014.8 |
| 20260507182739 | 67 | 244 | 9.0 | 17.0 | 0.00 | 0.00 | 0.00 | 34 | 1014.9 |
| 20260507181724 | 66 | 212 | 6.0 | 12.0 | 0.00 | 0.00 | 0.00 | 34 | 1014.9 |
| 20260507180724 | 65 | 246 | 6.0 | 9.0 | 0.00 | 0.00 | 0.00 | 35 | 1014.9 |
| 20260507175758 | 65 | 208 | 7.0 | 11.0 | 0.00 | 0.00 | 0.00 | 34 | 1014.9 |